FW3095 Weather Reports


Display with metric or nautical units.
time (UTC)temp
F
wind
direction
speed
MPH
gust
MPH
rain 1hr
in
rain 24hr
in
rain mn
in
humidity
%
barometer
mb
20260504213031 73 222 12.0 20.0 0.00 0.00 0.00 58 974.8
20260504211539 72 224 10.0 24.0 0.00 0.00 0.00 59 975.1
20260504210029 72 217 11.0 29.0 0.00 0.00 0.00 58 975.2
20260504204529 74 230 11.0 22.0 0.00 0.00 0.00 54 975.5
20260504203027 75 207 8.0 25.0 0.00 0.00 0.00 52 975.5
20260504201525 75 228 11.0 19.0 0.00 0.00 0.00 52 975.2
20260504200024 75 229 11.0 18.0 0.00 0.00 0.00 52 975.3
20260504194522 75 248 12.0 21.0 0.00 0.01 0.00 53 975.3
20260504193021 75 210 12.0 25.0 0.00 0.01 0.00 52 975.4
20260504191519 74 245 12.0 22.0 0.00 0.01 0.00 55 975.7
20260504190019 74 235 16.0 31.0 0.00 0.01 0.00 53 975.6
20260504184523 75 248 17.0 31.0 0.00 0.09 0.00 52 975.6
20260504183017 75 233 17.0 25.0 0.00 0.09 0.00 53 975.7
20260504181515 75 232 13.0 25.0 0.00 0.09 0.00 55 975.7
20260504180011 74 230 12.0 21.0 0.00 0.09 0.00 56 975.4
20260504174508 74 216 8.0 17.0 0.00 0.09 0.00 56 975.8
20260504173006 74 218 8.0 22.0 0.00 0.09 0.00 58 975.8
20260504171503 74 233 6.0 16.0 0.00 0.09 0.00 57 975.9
20260504081525 50 206 1.0 4.0 0.00 0.09 0.00 79 979.0
20260504044558 52 217 1.0 5.0 0.00 0.09 0.00 77 980.6
20260504043104 52 194 0.0 6.0 0.00 0.09 0.00 77 980.8
20260504041555 52 212 1.0 6.0 0.00 0.09 0.00 77 980.8
20260504040123 52 208 1.0 5.0 0.00 0.09 0.00 77 980.9
20260504034550 52 235 1.0 3.0 0.00 0.09 0.09 77 981.1
20260504033050 53 202 2.0 4.0 0.00 0.09 0.09 76 981.2
20260504031559 53 156 0.0 3.0 0.00 0.09 0.09 76 981.4
20260504030049 53 203 1.0 7.0 0.00 0.09 0.09 76 981.4
20260504024549 53 212 1.0 3.0 0.00 0.09 0.09 76 981.3
20260504023047 54 231 0.0 5.0 0.00 0.09 0.09 75 981.4
20260504021548 54 173 2.0 7.0 0.00 0.09 0.09 74 981.3
20260504020058 54 159 3.0 5.0 0.00 0.09 0.09 74 981.2
20260504014545 55 159 3.0 6.0 0.00 0.09 0.09 72 981.2
20260504013045 55 162 3.0 9.0 0.00 0.09 0.09 72 981.2
20260504011543 55 160 3.0 6.0 0.00 0.09 0.09 72 981.4
20260504010045 55 155 3.0 6.0 0.00 0.09 0.09 72 981.4
20260504004542 56 149 3.0 6.0 0.00 0.09 0.09 69 981.5
20260504003043 56 165 3.0 6.0 0.00 0.09 0.09 68 981.6
20260504001549 57 156 1.0 3.0 0.00 0.09 0.09 67 981.6
20260504000039 57 221 1.0 8.0 0.00 0.09 0.09 66 981.7
20260503234559 58 253 4.0 8.0 0.00 0.09 0.09 64 981.8
20260503233044 58 220 1.0 8.0 0.00 0.09 0.09 64 982.0
20260503231537 58 248 6.0 11.0 0.00 0.09 0.09 62 982.0
20260503230042 59 200 2.0 10.0 0.00 0.09 0.09 62 982.2
20260503224533 59 214 6.0 13.0 0.00 0.09 0.09 60 982.2
20260503223033 60 200 4.0 14.0 0.00 0.09 0.09 61 982.2
20260503221536 59 234 4.0 10.0 0.00 0.09 0.09 61 982.3
20260503220031 59 226 2.0 10.0 0.00 0.09 0.09 63 982.4
20260503214528 59 205 5.0 13.0 0.00 0.09 0.09 62 982.5